TimePST,TemperatureF,Dew PointF,Humidity,Sea Level PressureIn,VisibilityMPH,Wind Direction,Wind SpeedMPH,Gust SpeedMPH,PrecipitationIn,Events,Conditions,WindDirDegrees,DateUTC
12:53 AM,64.9,45.0,48,30.02,10.0,Calm,Calm,-,N/A,,Clear,0,2012-11-06 08:53:00
1:53 AM,64.0,46.0,52,30.01,10.0,NE,4.6,-,N/A,,Clear,50,2012-11-06 09:53:00
2:53 AM,63.0,46.9,56,30.01,10.0,East,4.6,-,N/A,,Clear,100,2012-11-06 10:53:00
3:53 AM,63.0,48.0,58,30.02,10.0,ESE,3.5,-,N/A,,Clear,110,2012-11-06 11:53:00
4:53 AM,61.0,46.9,60,30.03,10.0,Calm,Calm,-,N/A,,Clear,0,2012-11-06 12:53:00
5:53 AM,61.0,46.9,60,30.04,10.0,East,3.5,-,N/A,,Partly Cloudy,90,2012-11-06 13:53:00
6:53 AM,62.6,44.6,52,30.06,10.0,East,4.6,-,N/A,,Partly Cloudy,80,2012-11-06 14:53:00
7:53 AM,66.2,48.2,52,30.08,10.0,ESE,5.8,-,N/A,,Smoke,110,2012-11-06 15:53:00
8:53 AM,69.8,55.4,60,30.09,10.0,SE,3.5,-,N/A,,Smoke,130,2012-11-06 16:53:00
9:53 AM,73.4,51.8,47,30.08,10.0,ESE,3.5,-,N/A,,Smoke,120,2012-11-06 17:53:00
10:53 AM,79.0,46.9,32,30.06,10.0,Variable,3.5,-,N/A,,Partly Cloudy,0,2012-11-06 18:53:00
11:53 AM,78.1,55.9,46,30.04,10.0,West,9.2,-,N/A,,Clear,270,2012-11-06 19:53:00
12:53 PM,75.2,59.0,57,30.02,10.0,West,11.5,-,N/A,,Partly Cloudy,270,2012-11-06 20:53:00
1:53 PM,73.4,55.4,53,30.01,10.0,West,11.5,-,N/A,,Partly Cloudy,260,2012-11-06 21:53:00
2:53 PM,72.0,55.0,55,30.01,10.0,West,10.4,-,N/A,,Partly Cloudy,260,2012-11-06 22:53:00
3:53 PM,69.1,57.9,68,30.01,10.0,West,9.2,-,N/A,,Clear,260,2012-11-06 23:53:00
4:53 PM,68.0,60.1,76,30.00,10.0,West,8.1,-,N/A,,Clear,260,2012-11-07 00:53:00
5:53 PM,66.2,62.6,88,30.02,10.0,West,6.9,-,N/A,,Partly Cloudy,260,2012-11-07 01:53:00
6:47 PM,66.2,62.6,88,30.03,5.0,WSW,6.9,-,N/A,,Overcast,250,2012-11-07 02:47:00
6:53 PM,64.9,63.0,93,30.03,5.0,West,6.9,-,N/A,,Overcast,270,2012-11-07 02:53:00
7:13 PM,64.4,62.6,94,30.03,6.0,West,5.8,-,N/A,,Mostly Cloudy,270,2012-11-07 03:13:00
7:53 PM,66.0,62.1,87,30.04,8.0,West,3.5,-,N/A,,Scattered Clouds,270,2012-11-07 03:53:00
8:53 PM,64.9,62.1,90,30.06,8.0,WSW,4.6,-,N/A,,Partly Cloudy,250,2012-11-07 04:53:00
9:27 PM,64.4,62.6,94,30.07,8.0,WSW,5.8,-,N/A,,Mostly Cloudy,250,2012-11-07 05:27:00
9:53 PM,64.0,61.0,90,30.06,9.0,West,6.9,-,N/A,,Scattered Clouds,260,2012-11-07 05:53:00
10:03 PM,64.4,60.8,88,30.07,8.0,West,5.8,-,N/A,,Mostly Cloudy,260,2012-11-07 06:03:00
10:53 PM,64.0,61.0,90,30.06,8.0,West,6.9,-,N/A,,Overcast,270,2012-11-07 06:53:00
11:53 PM,64.0,60.1,87,30.06,10.0,West,3.5,-,N/A,,Overcast,270,2012-11-07 07:53:00